Location: Davayat
(45.9471°N, 3.1105°E)
Time: 17:48:19
(UTC+00:00)

Nadezhda 3 Rocket - Pass Details

Date: 01 December 2020
Orbit: 956 x 1000 km, 82.9° (Epoch: 17 January)

Event Time Altitude Azimuth Distance (km) Brightness Sun altitude
Rises 17:21:08 0° 160° (SSE) 3,707 7.0 -13.0°
Reaches altitude 10° 17:23:49 10° 153° (SSE) 2,764 6.3 -13.4°
Maximum altitude 17:29:35 38° 88° (E) 1,496 4.5 -14.4°
Drops below altitude 10° 17:35:21 10° 23° (NNE) 2,778 6.0 -15.3°
Sets 17:38:03 0° 16° (NNE) 3,728 6.7 -15.8°
